User: anonymous   Login
Location: Irma
(52.9170°N, 111.2330°W)
Time: 06:37:52
(UTC-06:00)
Language:

deb Chang Zheng 4 - Orbit

View from above orbital plane
View from above orbital plane
View from above satellite
View from above satellite

Ground track
Ground track

The orbit data is extracted from the following two-line orbital elements,

1 20847U 90081K   15241.15157172  .00005017  00000-0  74410-3 0  9993
2 20847 098.5804 073.0878 0019307 003.4334 112.5811 14.75443515308589
Epoch (UTC): 29 August 2015 03:38:15
Eccentricity: 0.0019307
inclination: 98.5804°
perigee height: 630 km
apogee height: 657 km
right ascension of ascending node: 73.0878°
argument of perigee: 3.4334°
revolutions per day: 14.75443515
mean anomaly at epoch: 112.5811°
orbit number at epoch: 30858

The dashed part of the orbit path shows where the satellite is in the earth's shadow,  

DLR